Latest Coastal Weather Observations for Esperance Harbour

IDW60701

Issued at 10:22 pm WST Tuesday 28 April 2015 (issued every 10 minutes, with the page automatically refreshed every 10 minutes)

About coastal observations | Map of coastal stations | Coastal observations for WA | Marine services | Other Formats
Station Details ID: 109504 Name: ESPERANCE NTC AWS Lat: -33.87 Lon: 121.90 Height: 0.0 m
Data from the previous 72 hours. | See also: Recent months for locations in Western Australia
Date/Time
WST
Temp

°C
Wind Pressure Rain
since 9am
mm
Weather Cloud Vis
km
Sea
Height
m
Swell
Dir
 
Speed
knots
Gust
knots
hPa Trend Height
m
Period
s
Dir
28/10:00pm 16.4 - - - 1026.9 - - - - - - - - -
28/09:30pm 16.4 - - - 1026.9 - - - - - - - - -
28/09:00pm 16.7 - - - 1026.8 - - - - - - - - -
28/08:30pm 17.1 - - - 1026.4 - - - - - - - - -
28/08:00pm 17.4 - - - 1026.2 - - - - - - - - -
28/07:30pm 17.4 - - - 1026.0 - - - - - - - - -
28/07:00pm 17.7 - - - 1026.0 - - - - - - - - -
28/06:30pm 18.2 - - - 1025.7 - - - - - - - - -
28/06:00pm 18.6 - - - 1025.7 - - - - - - - - -
28/05:30pm 18.6 - - - 1025.2 - - - - - - - - -
28/05:00pm 19.2 - - - 1024.7 - - - - - - - - -
28/04:30pm 19.4 - - - 1024.6 - - - - - - - - -
28/04:00pm 19.6 - - - 1024.5 - - - - - - - - -
28/03:30pm 20.1 - - - 1024.5 - - - - - - - - -
28/03:00pm 20.8 - - - 1024.4 - - - - - - - - -
28/02:30pm 20.4 - - - 1024.7 - - - - - - - - -
28/02:00pm 20.8 - - - 1024.9 - - - - - - - - -
28/01:30pm 20.2 - - - 1025.2 - - - - - - - - -
28/01:00pm 20.1 - - - 1025.6 - - - - - - - - -
28/12:30pm 19.9 - - - 1026.0 - - - - - - - - -
28/12:00pm 19.7 - - - 1026.6 - - - - - - - - -
28/11:30am 19.4 - - - 1027.2 - - - - - - - - -
28/11:00am 19.0 - - - 1027.8 - - - - - - - - -
28/10:30am 18.4 - - - 1028.4 - - - - - - - - -
28/10:00am 17.8 - - - 1028.7 - - - - - - - - -
28/09:30am 17.1 - - - 1029.1 - - - - - - - - -
28/09:00am 16.0 - - - 1029.4 - - - - - - - - -
28/08:30am 14.5 - - - 1029.6 - - - - - - - - -
28/08:00am 13.6 - - - 1029.8 - - - - - - - - -
28/07:30am 12.7 - - - 1029.7 - - - - - - - - -
28/07:00am 12.4 - - - 1029.6 - - - - - - - - -
28/06:30am 12.7 - - - 1029.5 - - - - - - - - -
28/06:00am 12.4 - - - 1029.5 - - - - - - - - -
28/05:30am 12.5 - - - 1029.4 - - - - - - - - -
28/05:00am 12.5 - - - 1029.3 - - - - - - - - -
28/04:30am 12.4 - - - 1029.1 - - - - - - - - -
28/04:00am 12.6 - - - 1029.0 - - - - - - - - -
28/03:30am 12.5 - - - 1029.0 - - - - - - - - -
28/03:00am 12.6 - - - 1029.0 - - - - - - - - -
28/02:30am 12.9 - - - 1029.4 - - - - - - - - -
28/02:00am 12.9 - - - 1029.3 - - - - - - - - -
28/01:30am 13.0 - - - 1029.5 - - - - - - - - -
28/01:00am 13.4 - - - 1029.8 - - - - - - - - -
28/12:30am 13.7 - - - 1029.9 - - - - - - - - -
28/12:00am 14.2 - - - 1029.9 - - - - - - - - -
 
Date/Time
WST
Temp

°C
Wind Pressure Rain
since 9am
mm
Weather Cloud Vis
km
Sea
Height
m
Swell
Dir
 
Speed
knots
Gust
knots
hPa Trend Height
m
Period
s
Dir
27/11:30pm 14.4 - - - 1030.0 - - - - - - - - -
27/11:00pm 14.6 - - - 1030.2 - - - - - - - - -
27/10:30pm 14.8 - - - 1030.3 - - - - - - - - -
27/10:00pm 15.2 - - - 1030.1 - - - - - - - - -
27/09:30pm 15.8 - - - 1030.1 - - - - - - - - -
27/09:00pm 16.1 - - - 1030.0 - - - - - - - - -
27/08:30pm 16.4 - - - 1029.8 - - - - - - - - -
27/08:00pm 16.8 - - - 1029.6 - - - - - - - - -
27/07:30pm 17.5 - - - 1029.5 - - - - - - - - -
27/07:00pm 17.6 - - - 1029.3 - - - - - - - - -
27/06:30pm 17.8 - - - 1029.1 - - - - - - - - -
27/06:00pm 18.1 - - - 1028.8 - - - - - - - - -
27/05:30pm 18.2 - - - 1028.8 - - - - - - - - -
27/05:00pm 18.6 - - - 1028.5 - - - - - - - - -
27/04:30pm 19.0 - - - 1028.6 - - - - - - - - -
27/04:00pm 19.2 - - - 1028.5 - - - - - - - - -
27/03:30pm 19.0 - - - 1028.6 - - - - - - - - -
27/03:00pm 19.4 - - - 1028.4 - - - - - - - - -
27/02:30pm 19.5 - - - 1028.3 - - - - - - - - -
27/02:00pm 20.5 - - - 1028.1 - - - - - - - - -
27/01:30pm 19.7 - - - 1028.3 - - - - - - - - -
27/01:00pm 20.1 - - - 1028.4 - - - - - - - - -
27/12:30pm 20.1 - - - 1028.9 - - - - - - - - -
27/12:00pm 19.7 - - - 1029.4 - - - - - - - - -
27/11:30am 19.0 - - - 1029.9 - - - - - - - - -
27/11:00am 18.3 - - - 1030.4 - - - - - - - - -
27/10:30am 18.0 - - - 1030.6 - - - - - - - - -
27/10:00am 17.4 - - - 1030.7 - - - - - - - - -
27/09:30am 16.9 - - - 1030.8 - - - - - - - - -
27/09:00am 16.1 - - - 1030.9 - - - - - - - - -
27/08:30am 15.0 - - - 1030.8 - - - - - - - - -
27/08:00am 14.3 - - - 1030.8 - - - - - - - - -
27/07:30am 13.9 - - - 1030.6 - - - - - - - - -
27/07:00am 13.6 - - - 1030.2 - - - - - - - - -
27/06:30am 14.3 - - - 1029.9 - - - - - - - - -
27/06:00am 14.5 - - - 1029.8 - - - - - - - - -
27/05:30am 15.0 - - - 1029.9 - - - - - - - - -
27/05:00am 15.1 - - - 1029.5 - - - - - - - - -
27/04:30am 15.4 - - - 1029.6 - - - - - - - - -
27/04:00am 15.3 - - - 1029.3 - - - - - - - - -
27/03:30am 15.5 - - - 1029.1 - - - - - - - - -
27/03:00am 15.4 - - - 1029.0 - - - - - - - - -
27/02:30am 15.5 - - - 1029.1 - - - - - - - - -
27/02:00am 15.4 - - - 1029.0 - - - - - - - - -
27/01:30am 15.1 - - - 1029.1 - - - - - - - - -
27/01:00am 15.5 - - - 1029.3 - - - - - - - - -
27/12:30am 15.4 - - - 1029.3 - - - - - - - - -
27/12:00am 15.3 - - - 1029.6 - - - - - - - - -
 
Date/Time
WST
Temp

°C
Wind Pressure Rain
since 9am
mm
Weather Cloud Vis
km
Sea
Height
m
Swell
Dir
 
Speed
knots
Gust
knots
hPa Trend Height
m
Period
s
Dir
26/11:30pm 15.4 - - - 1029.6 - - - - - - - - -
26/11:00pm 15.7 - - - 1029.3 - - - - - - - - -
26/10:30pm 15.5 - - - 1029.4 - - - - - - - - -
26/10:00pm 15.4 - - - 1029.7 - - - - - - - - -
26/09:30pm 15.6 - - - 1029.8 - - - - - - - - -
26/09:00pm 15.6 - - - 1029.8 - - - - - - - - -
26/08:30pm 16.0 - - - 1029.6 - - - - - - - - -
26/08:00pm 16.1 - - - 1029.4 - - - - - - - - -
26/07:30pm 16.2 - - - 1029.2 - - - - - - - - -
26/07:00pm 16.7 - - - 1028.9 - - - - - - - - -
26/06:30pm 16.8 - - - 1028.8 - - - - - - - - -
26/06:00pm 16.9 - - - 1028.5 - - - - - - - - -
26/05:30pm 17.2 - - - 1028.3 - - - - - - - - -
26/05:00pm 17.4 - - - 1028.2 - - - - - - - - -
26/04:30pm 17.5 - - - 1028.2 - - - - - - - - -
26/04:00pm 17.6 - - - 1028.1 - - - - - - - - -
26/03:30pm 17.6 - - - 1028.1 - - - - - - - - -
26/03:00pm 17.8 - - - 1028.0 - - - - - - - - -
26/02:30pm 17.9 - - - 1027.8 - - - - - - - - -
26/02:00pm 17.5 - - - 1027.8 - - - - - - - - -
26/01:30pm 17.6 - - - 1028.0 - - - - - - - - -
26/01:00pm 17.3 - - - 1027.9 - - - - - - - - -
26/12:30pm 17.8 - - - 1028.1 - - - - - - - - -
26/12:00pm 16.8 - - - 1028.5 - - - - - - - - -
26/11:30am 17.1 - - - 1028.9 - - - - - - - - -
26/11:00am 16.7 - - - 1029.3 - - - - - - - - -
26/10:30am 16.0 - - - 1029.5 - - - - - - - - -
26/10:00am 15.0 - - - 1029.8 - - - - - - - - -
26/09:30am 14.1 - - - 1029.9 - - - - - - - - -
26/09:00am 13.2 - - - 1029.9 - - - - - - - - -
26/08:30am 12.1 - - - 1029.9 - - - - - - - - -
26/08:00am 10.8 - - - 1029.8 - - - - - - - - -
26/07:30am 9.7 - - - 1029.6 - - - - - - - - -
26/07:00am 9.7 - - - 1029.3 - - - - - - - - -
26/06:30am 9.9 - - - 1029.1 - - - - - - - - -
26/06:00am 10.3 - - - 1028.9 - - - - - - - - -
26/05:30am 10.0 - - - 1028.9 - - - - - - - - -
26/05:00am 9.9 - - - 1028.7 - - - - - - - - -
26/04:30am 9.9 - - - 1028.6 - - - - - - - - -
26/04:00am 10.4 - - - 1028.3 - - - - - - - - -
26/03:30am 10.7 - - - 1028.1 - - - - - - - - -
26/03:00am 10.6 - - - 1028.1 - - - - - - - - -
26/02:30am 11.2 - - - 1028.3 - - - - - - - - -
26/02:00am 11.7 - - - 1028.3 - - - - - - - - -
26/01:30am 11.6 - - - 1028.2 - - - - - - - - -
26/01:00am 12.5 - - - 1028.3 - - - - - - - - -
26/12:30am 13.6 - - - 1028.1 - - - - - - - - -
26/12:00am 12.8 - - - 1028.1 - - - - - - - - -
 
Date/Time
WST
Temp

°C
Wind Pressure Rain
since 9am
mm
Weather Cloud Vis
km
Sea
Height
m
Swell
Dir
 
Speed
knots
Gust
knots
hPa Trend Height
m
Period
s
Dir
25/11:30pm 13.1 - - - 1028.4 - - - - - - - - -
25/11:00pm 13.6 - - - 1028.5 - - - - - - - - -
25/10:30pm 13.5 - - - 1028.6 - - - - - - - - -

Other Formats:

Comma delimited format used in spreadsheet applications
http://www.bom.gov.au/fwo/IDW60701/IDW60701.95648.axf

JavaScript Object Notation format (JSON) in row-major order
http://www.bom.gov.au/fwo/IDW60701/IDW60701.95648.json